This is the latest recevied weather packets stored in our database for station/object UA1CAS-13. If no packets are shown the sender has not sent any weather packets the latest 10 day(s).
| Time | Temp. | Humidity | Pressure | Rain* | Wind** | Luminosity | Snow |
|---|---|---|---|---|---|---|---|
| 1778013090 | 5.56° C | 75% | 1003 hPa | - | - | - | - |
| 1778012189 | 6.11° C | 72% | 1003 hPa | - | - | - | - |
| 1778011288 | 7.22° C | 71% | 1003 hPa | - | - | - | - |
| 1778010387 | 7.78° C | 69% | 1003 hPa | - | - | - | - |
| 1778009486 | 8.33° C | 68% | 1003 hPa | - | - | - | - |
| 1778008584 | 8.33° C | 64% | 1003 hPa | - | - | - | - |
| 1778007684 | 8.89° C | 58% | 1003 hPa | - | - | - | - |
| 1778006782 | 10° C | 55% | 1003 hPa | - | - | - | - |
| 1778005881 | 10° C | 53% | 1002 hPa | - | - | - | - |
| 1778004980 | 10.56° C | 51% | 1002 hPa | - | - | - | - |
| 1778004079 | 10.56° C | 49% | 1002 hPa | - | - | - | - |
| 1778003178 | 11.11° C | 51% | 1002 hPa | - | - | - | - |
| 1778002276 | 11.11° C | 64% | 1002 hPa | - | - | - | - |
| 1778001375 | 11.11° C | 62% | 1002 hPa | - | - | - | - |
| 1778000474 | 11.67° C | 61% | 1002 hPa | - | - | - | - |
| 1777999573 | 11.67° C | 61% | 1002 hPa | - | - | - | - |
| 1777998672 | 11.11° C | 59% | 1002 hPa | - | - | - | - |
| 1777997771 | 11.67° C | 58% | 1002 hPa | - | - | - | - |
| 1777996870 | 12.22° C | 57% | 1001 hPa | - | - | - | - |
| 1777995969 | 11.67° C | 56% | 1001 hPa | - | - | - | - |
| 1777995068 | 11.67° C | 55% | 1001 hPa | - | - | - | - |
| 1777994167 | 12.22° C | 55% | 1001 hPa | - | - | - | - |
| 1777993265 | 12.22° C | 56% | 1001 hPa | - | - | - | - |
| 1777992364 | 12.78° C | 55% | 1001 hPa | - | - | - | - |
| 1777991462 | 12.78° C | 59% | 1001 hPa | - | - | - | - |
* Rain since midnight (hover to see other rain measurements)
** Current wind speed in m/s (hover to see current wind gust speed)